Location: Roland
(31.1349°N, 85.4372°W)
Time: 19:42:52
(UTC+00:00)

Vanguard 2 Rocket - Pass Details

Date: 22 April 2021
Orbit: 554 x 3326 km, 32.9° (Epoch: 13 May)

Event Time Altitude Azimuth Distance (km) Brightness Sun altitude
Rises 02:47:58 0° 282° (WNW) 6,771 12.2 -30.1°
Reaches altitude 10° 02:55:04 10° 267° (W) 5,247 11.3 -31.2°
Maximum altitude 03:03:12 17° 232° (SW) 3,916 10.1 -32.5°
Enters shadow 03:07:53 13° 204° (SSW) 3,737 9.8 -33.3°
